Regional Weather Roundup
Issued by NWS

Home | Current Version | Previous Version | Graphics & Text | Print | Product List | Glossary On
Versions: 1 2 3 4 5 6 7 8 9 10 11 12 13 14 15 16 17 18 19 20 21 22 23 24 25 26 27 28 29 30 31 32 33 34 35 36 37 38 39 40 41 42 43 44 45 46 47 48 49 50
587
ASUS45 KBOI 251410
RWRID

IDAHO REGIONAL WEATHER ROUNDUP
NATIONAL WEATHER SERVICE BOISE ID
700 AM MST SAT FEB 25 2017

NOTE: "FAIR" INDICATES FEW OR NO CLOUDS BELOW 12000 FEET
WITH NO SIGNIFICANT WEATHER AND/OR OBSTRUCTIONS TO VISIBILITY

IDZ012-014-251500-
SOUTHWEST IDAHO


CITY           SKY/WX    TMP DP  RH WIND       PRES   REMARKS
BOISE          CLEAR     21  14  74 S3        30.14R
CALDWELL       CLEAR     17  14  88 CALM      30.17R
MOUNTAIN HOME  CLEAR     19  19 100 E5        30.13S WCI  12
$$

IDZ016-017-251500-
SOUTHCENTRAL IDAHO


CITY           SKY/WX    TMP DP  RH WIND       PRES   REMARKS
BURLEY         PTCLDY    17  10  74 CALM      30.05F
JEROME           N/A    N/A N/A N/A MISG      30.08S
TWIN FALLS     PTCLDY    15   6  67 SW9       30.07S WCI   3
$$

IDZ019>023-251500-
SOUTHEAST IDAHO


CITY           SKY/WX    TMP DP  RH WIND       PRES   REMARKS
IDAHO FALLS    CLOUDY     9   6  88 W7        30.02S WCI  -2
POCATELLO      CLOUDY     6   2  83 NE5       30.05S WCI  -3
REXBURG        CLOUDY    12   7  80 SW12      30.00F WCI  -2
$$

IDZ006-010-011-018-031-032-251500-
CENTRAL IDAHO MOUNTAINS


CITY           SKY/WX    TMP DP  RH WIND       PRES   REMARKS
MCCALL         CLOUDY     7   2  80 CALM      30.01S
HAILEY         CLEAR      9   1  72 NW10      30.01F WCI  -6
STANLEY          N/A      1  -4  79 S5        29.97S WCI  -9
SALMON         CLOUDY    19  10  68 SW7       30.02S WCI  10
CHALLIS        CLEAR     13   2  61 CALM      30.00S
$$

IDZ002-004-006-007-026-251500-
NORTHERN IDAHO


CITY           SKY/WX    TMP DP  RH WIND       PRES   REMARKS
LEWISTON       CLEAR     24  18  77 CALM      30.17S
LOWELL           N/A     27  21  78 CALM      30.20S
COEUR D`ALENE  FOG       21  20  96 W3        30.10S VSB 1/4
MULLAN PASS    LGT SNOW  12  11  95 VRB6      29.85F VSB 3/4 WCI   3
$$




USA.gov is the U.S. government's official web portal to all federal, state and local government web resources and services.